sat.trackr.live / text

‹ back to catalog

STARLINK-5061

NORAD 54847 · 2022-177AD

PAYLOAD ACTIVE UNKNOWN

§ Identity

Operator
Country
US
Launch date
2022-12-28
Launch site
AFETR
Launch vehicle
Mass (kg)
RCS (m²)

Purposes: comms

External: N2YO · Heavens-Above · Gunter

§ Orbital elements

Epoch: 2026-09-20T21:21:04.369824Z

Period
94.27 min
Inclination
43.0025°
Eccentricity
0.0001192
Mean motion
15.27576098 rev/d
Perigee alt
482.2 km
Apogee alt
483.9 km
Semi-major
6,861.2 km
B*
2.5160e-6
RAAN
87.9008°
Arg perigee
263.7962°
Mean anomaly
96.2754°
Rev number
20,707

§ Raw data

STARLINK-50611 54847U 22177AD  26263.88963391 -.00000193  00000+0  25160-5 0  99952 54847  43.0025  87.9008 0001192 263.7962  96.2754 15.27576098207073

JSON: /api/v1/satellites/54847 · /tle

For live sub-satellite position, see the globe view (requires WebGL).

§ Visibility from observer

Set your observer location to see the next 7 days of passes ≥ 10°. The values pass through the URL so the page stays shareable.

No JS? Fill the form by hand. The geolocation button needs JavaScript.